Location: Cluj-Napoca
(46.7712°N, 23.6236°E)
Time: 22:34:50
(UTC+02:00)

First-Move - Pass Details

Date: 29 November 2021
Orbit: 574 x 665 km, 97.6° (Epoch: 28 January)

Event Time Altitude Azimuth Distance (km) Brightness Sun altitude
Rises 04:19:47 0° 21° (NNE) 2,983 ? -34.8°
Reaches altitude 10° 04:22:10 10° 30° (NNE) 2,078 ? -34.4°
Enters shadow 04:23:25 17° 39° (NE) 1,647 ? -34.2°
